Orbital Elements at Epoch 2459200.5 (2020-Dec-17.0) TDB
Reference: JPL 23 (heliocentric ecliptic J2000)
Element | Value | Uncertainty (1-sigma) | Units |
e | .1367533596804156 | 5.8378e-08 | |
a | 3.050402265950082 | 2.9428e-08 | au |
q | 2.633249507704656 | 1.7631e-07 | au |
i | 11.09620885952367 | 6.7556e-06 | deg |
node | 145.0574626647911 | 2.6658e-05 | deg |
peri | 238.7646886171498 | 3.3548e-05 | deg |
M | 134.7313944411291 | 1.8985e-05 | deg |
tp | 2458472.216613374184 (2018-Dec-19.71661337) | 0.00010215 | TDB |
period | 1945.960852500892 5.33 | 2.816e-05 7.71e-08 | d yr |
n | .1849985828529584 | 2.6771e-09 | deg/d |
Q | 3.467555024195509 | 3.3453e-08 | au |
|
| | Orbit Determination Parameters
Additional Information
|